Location: Eaton
(41.3139°N, 82.0207°W)
Time: 06:48:03
(UTC+00:00)

Cosmos 1184 Rocket - Pass Details

Date: 17 June 2021
Orbit: 399 x 414 km, 81.2° (Epoch: 27 July)

Event Time Altitude Azimuth Distance (km) Brightness Sun altitude
Exits shadow 04:48:12 32° 18° (NNE) 747 4.5 -24.6°
Drops below altitude 10° 04:50:06 10° 13° (NNE) 1,501 6.4 -24.7°
Sets 04:52:08 0° 12° (NNE) 2,368 7.7 -24.7°
